Location: Gerkesklooster
(53.2409°N, 6.2161°E)
Time: 22:36:57
(UTC+00:00)

Daily predictions for brighter satellites

Satellite Brightness Start Highest point End
(mag) Time Altitude Azimuth Time Altitude Azimuth Time Altitude Azimuth
ATLAS 2AS CENTAUR R/B 3.5 17:09:49 10° W 17:16:25 45° NNW 17:22:56 10° NE
Cosmos 2123 Rocket 4.1 17:12:53 10° S 17:19:13 89° E 17:25:33 10° N
Resurs 1-3 3.7 17:17:15 10° SE 17:21:24 50° ENE 17:25:35 10° N
ATLAS CENTAUR R/B 3.0 17:21:07 10° N 17:21:34 10° N 17:22:01 10° NNE
IRS-1C 4.4 17:18:21 10° SSE 17:23:41 78° WSW 17:29:03 10° NNW
Lacrosse 5 rocket 1.1 17:20:32 10° WSW 17:24:00 68° NNW 17:27:36 10° ENE
Resurs 01 Rocket 2.4 17:25:09 10° SE 17:29:01 31° ENE 17:32:54 10° N
Cosmos 1782 4.0 17:28:20 10° NNE 17:30:49 17° ENE 17:33:17 10° ESE
CZ-4 R/B 4.3 17:29:59 10° SSE 17:33:58 87° ENE 17:37:58 10° NNW
Cosmos 1674 Rocket 3.5 17:30:37 10° S 17:35:00 78° E 17:39:27 10° NNE
SPOT 1/Viking Rocket 3.7 17:30:03 10° SSE 17:35:11 83° WSW 17:40:21 10° NNW
Geosat FO 4.1 17:32:42 10° NNE 17:35:51 88° SE 17:38:52 10° SSW
USA 267 3.4 17:31:02 10° ENE 17:37:35 70° SSE 17:44:06 10° SW
CARTOSAT-1 3.8 17:35:28 10° SE 17:39:28 45° ENE 17:43:29 10° N
Cosmos 2082 Rocket 4.4 17:38:39 10° WNW 17:42:09 16° NNW 17:45:40 10° NNE
ARIANE 6 FM1 Upper Stage 3.1 17:38:23 10° NW 17:42:10 40° NNE 17:45:29 13° E
Radarsat Rocket 4.0 17:36:52 10° SSE 17:42:45 70° ENE 17:49:15 10° NNW
Meteor 1-11 4.3 17:38:52 10° SSW 17:44:31 86° WNW 17:50:20 10° NNE
Cosmos 2292 Rocket 4.3 17:41:46 10° SW 17:44:34 37° WNW 17:47:44 10° N
SL-19 R/B 4.5 17:39:09 10° SE 17:45:07 59° ENE 17:50:48 10° NNW
CZ-2D R/B 4.5 17:43:58 10° SSW 17:46:49 36° W 17:49:41 10° NNW
Cosmos 2297 Rocket 2.4 17:42:10 10° S 17:47:37 51° ESE 17:53:06 10° NE
RESURS DK-1 4.1 17:45:24 10° N 17:47:48 15° NNE 17:49:28 12° ENE
Cosmos 1943 4.4 17:43:36 10° NNW 17:48:15 25° NE 17:51:55 14° E
Cosmos 1447 Rocket 4.5 17:43:13 10° S 17:49:15 63° E 17:55:19 10° NNE
SPOT 5 4.0 17:52:25 10° ESE 17:56:28 26° ENE 18:00:41 10° N
SeaSat 1 3.4 17:53:29 10° SSE 17:58:15 51° WSW 18:03:02 10° NW
Cosmos 1867 4.2 17:53:33 10° WSW 17:58:53 55° NW 18:04:17 10° NE
SJ-6B 3.1 17:56:12 10° SE 17:59:19 33° ENE 18:02:28 10° N
IRAS Rocket 4.4 17:54:28 10° SE 17:59:54 52° ENE 18:05:22 10° N
Cosmos 2228 3.1 17:59:00 10° N 18:03:04 47° ENE 18:07:08 10° SSE
COSMO-SKYMED 1 2.5 17:59:51 10° NNE 18:03:56 57° ESE 18:07:58 10° S
PSLV R/B 3.3 18:00:04 10° SSE 18:04:11 78° ENE 18:08:17 10° NNW
Cosmos 1544 Rocket 4.3 18:01:54 10° N 18:05:43 29° ENE 18:08:59 13° SE
NOSS 3-3 (C) 3.8 18:01:08 10° SW 18:06:30 84° SE 18:13:04 10° NE
Meteor 1-31 Rocket 3.7 18:06:27 22° ENE 18:06:56 23° ENE 18:09:42 10° N
Cosmos 1570 Rocket 4.0 18:03:11 10° S 18:08:21 58° ESE 18:13:31 10° NNE
CZ-2D R/B 3.6 18:05:07 10° S 18:09:03 71° WSW 18:13:06 10° NNW
YAOGAN 3 4.4 18:05:19 10° SSE 18:09:30 71° ENE 18:13:43 10° N
Cosmos 2344 4.3 18:03:57 10° S 18:10:19 28° ESE 18:14:28 17° ENE
Cosmos 1513 Rocket 4.5 18:04:14 10° N 18:10:33 81° E 18:16:56 10° SSE
Cosmos 1455 Rocket 3.0 18:06:30 10° NNW 18:10:50 87° W 18:15:07 10° S
YAOGAN 1 3.2 18:09:03 10° S 18:13:15 58° WSW 18:17:28 10° NNW
Cosmos 2263 Rocket 3.2 18:10:03 10° SSE 18:14:32 25° ESE 18:16:42 20° ENE
Cosmos 2034 Rocket 4.2 18:08:36 10° N 18:14:32 46° ENE 18:20:27 10° SE
Cosmos 1607 4.3 18:08:36 10° WSW 18:14:42 66° NW 18:20:56 10° NE
Cosmos 1072 Rocket 4.4 18:09:19 10° N 18:15:35 69° ENE 18:21:43 10° SSE
Cosmos 1975 Rocket 3.3 18:11:35 10° SSE 18:15:41 43° E 18:19:47 10° NNE
Cosmos 2237 Rocket 3.1 18:14:05 10° NW 18:19:35 52° WSW 18:25:04 10° S
DNEPR-1 R/B 4.2 18:19:22 10° NW 18:24:08 73° SW 18:29:49 10° SE
Cosmos 773 Rocket 4.0 18:19:35 10° S 18:24:47 62° ESE 18:30:01 10° NNE
NOAA 6 4.3 18:20:55 10° S 18:26:03 74° WSW 18:31:15 10° NNW
Cosmos 2208 Rocket 4.0 18:25:32 10° S 18:30:43 64° ESE 18:36:02 10° NNE
Terra 3.1 18:31:23 22° NE 18:31:23 22° NE 18:34:42 10° N
CRYOSAT 2 4.3 18:27:48 10° N 18:32:44 83° E 18:37:37 10° S
NOSS 3-3 (A) 4.1 18:27:33 10° WSW 18:32:58 68° NW 18:38:43 14° NE
Meteor 2-17 Rocket 4.3 18:31:07 10° S 18:37:10 78° E 18:43:13 10° NNE
Cosmos 1346 Rocket 2.6 18:36:10 10° S 18:39:40 49° E 18:40:09 45° ENE
Cosmos 44 Rocket 3.3 18:34:49 10° SSW 18:39:44 66° SE 18:42:35 26° NE
TSX-5 4.2 18:34:40 10° NNW 18:40:04 70° NE 18:42:13 31° SE
Cosmos 1464 Rocket 4.0 18:35:16 10° N 18:41:41 88° W 18:48:00 10° S
Cosmos 1602 2.7 18:40:31 10° SSW 18:43:14 85° WSW 18:43:14 85° WSW
CZ-4C R/B 2.7 18:39:38 10° WSW 18:44:11 51° NNW 18:48:40 17° NE
SL-16 R/B 2.1 18:40:41 10° NNW 18:46:23 87° NE 18:50:49 17° SSE
Cosmos 2227 Rocket 2.1 18:41:27 10° SSW 18:47:00 62° ESE 18:51:30 16° NE
ATLAS CENTAUR R/B 2.6 18:53:44 10° NNW 18:54:54 18° N 18:54:54 18° N
Lacrosse 5 rocket 1.6 18:57:44 10° WNW 19:01:10 44° N 19:01:16 44° N
CZ-4 R/B 1.6 19:02:50 47° NNE 19:02:50 47° NNE 19:05:46 10° N
Resurs 01 Rocket 3.0 19:01:11 10° SSW 19:05:18 39° W 19:09:28 10° NNW
Cosmos 1782 3.5 19:02:20 10° NNW 19:05:49 48° W 19:09:16 10° S
ATLAS 2AS CENTAUR R/B 3.7 19:02:37 10° WNW 19:08:50 35° N 19:11:46 25° NE
CZ-4B R/B 3.2 19:11:59 52° E 19:12:28 54° ENE 19:17:37 10° N
CSL-04 Debris 4.1 19:12:12 22° SSE 19:15:47 90° WSW 19:21:16 10° NNW
CZ-4B DEB 4.0 19:14:53 37° SSE 19:17:10 80° ENE 19:22:39 10° NNW
ERS-1 Rocket 3.1 19:20:01 55° NE 19:20:01 55° NE 19:24:34 10° N
USA 267 3.4 19:17:49 36° ENE 19:20:40 71° NNW 19:27:12 10° W
CSL-04 Rocket 3.6 19:17:15 20° S 19:21:00 78° WSW 19:26:19 10° NNW
ARIANE 6 FM1 Upper Stage 3.2 19:17:26 10° WNW 19:21:15 47° SW 19:21:31 47° SW
RESURS DK-1 3.2 19:22:01 10° NNW 19:24:45 40° NNW 19:24:45 40° NNW
Cosmos 2082 Rocket 4.4 19:26:01 10° NNW 19:28:45 13° N 19:30:22 12° NNE
Cosmos 2297 Rocket 3.4 19:26:30 10° WSW 19:31:49 40° NW 19:37:03 11° NNE
Cosmos 1943 3.0 19:27:25 10° NNW 19:33:10 80° ENE 19:33:43 72° ESE
SPOT 5 3.3 19:31:23 27° S 19:34:01 62° W 19:39:08 10° NNW
Okean O Rocket 3.5 19:39:03 21° N 19:39:03 21° N 19:40:37 10° N
Tsikada Rocket 3.8 19:30:22 10° S 19:36:31 82° E 19:42:45 10° NNE
MOS 1 4.2 19:38:45 66° SSE 19:39:37 87° ENE 19:45:21 10° NNW
Meteor 1-31 Rocket 4.2 19:40:27 32° WNW 19:40:27 32° WNW 19:43:06 10° NNW
Iridium 4 Rocket 4.3 19:41:06 10° N 19:44:03 36° N 19:44:03 36° N
Cosmos 2219 4.2 19:42:22 10° SSW 19:45:34 34° S 19:45:34 34° S
Cosmos 1603 4.1 19:43:23 10° NNW 19:48:04 51° NNE 19:48:04 51° NNE
ADEOS 3.6 19:53:50 75° W 19:53:50 75° W 19:58:55 10° NNW
Cosmos 2263 Rocket 2.3 19:52:14 10° SW 19:57:55 74° NW 19:58:28 68° N
Meteor 2-12 Rocket 4.4 20:04:14 79° N 20:04:14 79° N 20:10:03 10° N
Cosmos 1634 Rocket 4.5 20:00:21 10° NNW 20:06:34 59° W 20:09:11 34° SSW
Terra 3.0 20:10:00 38° NNW 20:10:00 38° NNW 20:12:57 10° NNW
Cosmos 1833 Rocket 4.2 20:12:03 10° NNW 20:15:10 25° N 20:15:10 25° N
Cosmos 2344 3.4 20:16:19 10° SW 20:23:51 81° NW 20:24:32 73° NNE
Cosmos 2279 Rocket 4.4 20:21:25 10° NNW 20:27:29 58° W 20:27:37 58° W
SL-16 R/B 4.4 20:25:47 10° NW 20:29:47 20° W 20:32:45 14° SW
Cosmos 2227 Rocket 3.6 20:26:15 10° WSW 20:31:24 35° NW 20:33:22 27° N
CZ-4C R/B 3.6 20:28:52 10° WNW 20:33:37 32° N 20:33:37 32° N
CZ-4 R/B 4.4 20:37:50 13° WNW 20:37:50 13° WNW 20:38:43 10° NW
ATLAS 2AS CENTAUR R/B 3.6 20:54:23 10° NW 20:59:11 42° NNW 20:59:11 42° NNW
USA 267 3.9 21:05:09 50° NW 21:05:09 50° NW 21:09:58 10° WNW
Cosmos 2082 Rocket 4.5 21:10:20 10° NNW 21:12:11 17° N 21:12:11 17° N
